Weather History for KEAT - October, 2014

Change the Weather History Date:

Wednesday, October 22, 2014

  Actual Average Record
Temperature  
Mean Temperature 49 °F 43 °F  
Max Temperature 58 °F 54 °F 72 °F (2003)
Min Temperature 39 °F 32 °F 27 °F (1984)
Degree Days  
Heating Degree Days 16 22  
Month to date heating degree days 257 387  
Since 1 July heating degree days 441 743  
Cooling Degree Days 0 0  
Month to date cooling degree days 0 0  
Year to date cooling degree days 408 249  
Moisture  
Dew Point 45 °F    
Average Humidity 0    
Maximum Humidity 0    
Minimum Humidity 0    
Precipitation  
Precipitation 0.31 in 0.05 in 0.31 in (2014)
Month to date precipitation 0.64 0.78  
Year to date precipitation 12.61 11.83  
Snow  
Snow 0.00 in 0.00 in - ()
Month to date snowfall 0.0 0.0  
Since 1 July snowfall 0.0 0.0  
Since 1 September snowfall 0.0 0.0  
Snow Depth 0.00 in    
Sea Level Pressure  
Sea Level Pressure 29.75 in    
Wind  
Wind Speed 8 mph (West)    
Max Wind Speed 15 mph    
Max Gust Speed 0 mph    
Visibility 9 miles    
Events Rain    
T = Trace of Precipitation, MM = Missing Value Source: NWS Daily Summary

Daily Weather History Graph

Daily Weather History Graph

Search for Another Location

Airport or City:

Trip Planner

Search our weather history database for the weather conditions in past years. The results will help you decide how hot, cold, wet, or windy it might be!

Date:

Astronomy

Oct. 22, 2014 Rise Set
Actual Time 7:29 AM PDT 6:00 PM PDT
Civil Twilight 6:58 AM PDT 6:31 PM PDT
Nautical Twilight 6:22 AM PDT 7:07 PM PDT
Astronomical Twilight 5:47 AM PDT 7:42 PM PDT
Moon 6:11 AM PDT (10/22) 5:32 PM PDT (10/22)
Length of Visible Light 11h 33m
Length of Day
10h 30m
Waning Crescent, 1% of the Moon is Illuminated
Oct 22
Waning Crescent
Oct 23
New
Oct 30
First Quarter
Nov 6
Full
Nov 14
Last Quarter

Hourly Weather History & Observations

Time (PDT) Temp. Dew Point Humidity Pressure Visibility Wind Dir Wind Speed Gust Speed Precip Events Conditions
12:55 AM 52.0 °F 41.0 °F 66% 29.86 in 10.0 mi SE 15.0 mph - N/A   Overcast
1:55 AM 52.0 °F 41.0 °F 66% 29.85 in 10.0 mi ESE 11.5 mph - N/A   Mostly Cloudy
2:55 AM 51.1 °F 42.1 °F 71% 29.84 in 10.0 mi East 10.4 mph - N/A   Mostly Cloudy
3:55 AM 51.1 °F 42.1 °F 71% 29.83 in 10.0 mi ESE 11.5 mph - N/A   Overcast
4:55 AM 50.0 °F 43.0 °F 77% 29.82 in 10.0 mi East 8.1 mph - N/A   Overcast
5:55 AM 51.1 °F 42.1 °F 71% 29.81 in 10.0 mi SE 12.7 mph - N/A   Overcast
6:55 AM 51.1 °F 41.0 °F 68% 29.81 in 10.0 mi SE 10.4 mph - N/A   Overcast
7:55 AM 51.1 °F 41.0 °F 68% 29.81 in 10.0 mi SE 10.4 mph - N/A   Overcast
8:55 AM 52.0 °F 41.0 °F 66% 29.82 in 10.0 mi SE 6.9 mph - N/A   Overcast
9:55 AM 52.0 °F 43.0 °F 71% 29.82 in 10.0 mi ESE 4.6 mph - N/A   Overcast
10:55 AM 52.0 °F 43.0 °F 71% 29.81 in 10.0 mi Calm Calm - N/A   Mostly Cloudy
11:55 AM 52.0 °F 45.0 °F 77% 29.82 in 10.0 mi NW 5.8 mph - 0.00 in Rain Light Rain
12:55 PM 52.0 °F 45.0 °F 77% 29.81 in 10.0 mi West 5.8 mph - 0.01 in Rain Light Rain
1:55 PM 51.1 °F 46.0 °F 83% 29.79 in 10.0 mi West 4.6 mph - 0.00 in Rain Light Rain
2:32 PM 51.1 °F 46.0 °F 83% 29.78 in 10.0 mi West 4.6 mph - 0.00 in Rain Light Rain
2:55 PM 51.1 °F 45.0 °F 80% 29.77 in 10.0 mi WNW 3.5 mph - 0.00 in Rain Light Rain
3:07 PM 51.1 °F 45.0 °F 80% 29.76 in 10.0 mi West 3.5 mph - 0.00 in Rain Light Rain
3:14 PM 51.1 °F 45.0 °F 80% 29.76 in 10.0 mi West 3.5 mph - 0.00 in Rain Light Rain
3:55 PM 51.1 °F 45.0 °F 80% 29.75 in 10.0 mi West 3.5 mph - 0.01 in Rain Light Rain
4:55 PM 51.1 °F 46.0 °F 83% 29.72 in 9.0 mi WNW 3.5 mph - 0.00 in Rain Light Rain
5:47 PM 50.0 °F 46.9 °F 89% 29.69 in 4.0 mi West 3.5 mph - 0.01 in Rain Light Rain
5:55 PM 50.0 °F 46.0 °F 86% 29.69 in 6.0 mi Calm Calm - 0.01 in Rain Light Rain
6:55 PM 50.0 °F 46.9 °F 89% 29.68 in 6.0 mi West 4.6 mph - 0.01 in Rain Light Rain
7:55 PM 50.0 °F 46.9 °F 89% 29.66 in 6.0 mi WSW 4.6 mph - 0.01 in Rain Light Rain
8:34 PM 51.1 °F 46.9 °F 86% 29.65 in 7.0 mi NW 4.6 mph - 0.00 in   Overcast
8:47 PM 51.1 °F 46.9 °F 86% 29.65 in 8.0 mi West 5.8 mph - 0.00 in   Overcast
8:55 PM 51.1 °F 46.9 °F 86% 29.65 in 7.0 mi Calm Calm - 0.00 in   Overcast
9:10 PM 51.1 °F 46.9 °F 86% 29.65 in 6.0 mi Calm Calm - N/A   Mostly Cloudy
9:55 PM 51.1 °F 46.9 °F 86% 29.65 in 9.0 mi SSE 3.5 mph - N/A   Overcast
10:30 PM 48.9 °F 46.0 °F 90% 29.64 in 2.0 mi West 4.6 mph - N/A   Partly Cloudy
10:40 PM 48.9 °F 46.0 °F 90% 29.64 in 8.0 mi Calm Calm - N/A   Clear
10:55 PM 48.9 °F 46.0 °F 90% 29.66 in 8.0 mi NW 5.8 mph - N/A   Scattered Clouds
11:55 PM 50.0 °F 45.0 °F 83% 29.68 in 10.0 mi NNW 9.2 mph - N/A   Partly Cloudy